Vertical_Velocity
-0 0 1 0 -0 -0 -0 0 1 2 1 1 0 -1 -1 -0 -1 -0 -2 -2 -1 -1 -1 -0 -1 -2 -1 -1 0 -0 0 -0 -1 -0 -1 -1 -1 -1 -1 -1 -1 -1 -1
-2 0 -1 2 0 -1 1 0 0 1 2 -0 1 -1 -1 1 -0 -1 -1 -0 -1 -1 -3 -1 -2 -1 -1 -0 0 -1 0 -0 -1 -1 -1 -1 -1 -2 -2 -2 -3 -2 -0
-0 -0 -0 -0 1 0 -0 -1 0 1 1 1 2 -1 -0 0 1 -0 -0 -0 -1 -1 -1 0 -0 0 -0 0 -0 -0 -1 -1 -1 0 1 1 0 1 1 0 1 0 0
0 -1 0 -1 1 -0 -0 1 0 1 1 1 1 1 -0 0 -0 1 -0 -0 0 -2 -2 -1 -1 -1 -1 -0 -1 -1 0 0 1 0 -1 -1 0 -0 0 -1 0 1 -0
-0 -1 -1 2 -1 -2 1 0 0 1 0 2 -0 1 1 -0 -0 0 0 -0 -0 -1 -1 -1 -1 -0 -1 0 -0 -1 0 -1 0 1 0 1 2 -1 0 1 0 -0 -1
0 1 -2 -1 1 -0 -0 1 1 -1 0 -0 1 1 1 -1 -0 -1 0 0 -1 0 -0 -0 -0 -1 -1 -1 0 -1 -1 -0 -0 -0 -0 1 -1 -1 -0 -2 -2 -1 -1
1 2 2 1 -2 1 1 1 1 1 1 0 0 -0 2 -0 -0 -0 -1 -0 -0 -1 -1 -1 -1 -1 -1 -1 -1 -0 -0 -1 -1 -0 -0 0 0 0 0 -1 -1 -1 -1
0 3 0 4 1 -1 1 1 1 1 0 1 -0 0 -0 0 1 -0 -0 -1 0 -0 -1 -1 -1 -0 0 0 -1 -1 -1 -1 -1 -0 0 -0 -1 -1 -1 -1 -0 -1 -1
-1 1 3 2 2 1 0 1 1 2 0 2 0 -0 0 0 -0 1 -0 -1 -0 -0 -1 -1 -1 -1 -1 -1 -1 -1 -1 -1 -0 0 0 0 1 1 1 1 -0 0 -1
3 3 1 3 2 3 -3 -3 -0 1 1 1 1 0 0 0 -1 -1 1 -1 0 -1 -2 -1 -0 -0 -0 -0 -0 -0 -0 -1 -1 -1 -1 -0 0 0 -1 -0 -2 -1 -1
2 3 1 4 2 2 2 1 -0 1 2 0 -0 -0 -0 0 -0 -1 -1 -0 -0 1 -0 -1 -1 -1 -1 -1 -1 -1 -1 -1 -1 -1 -1 -1 -0 -1 -0 1 1 -0 -1
1 4 1 0 3 1 1 2 1 -1 -1 1 1 0 -0 -1 0 -0 0 -1 -0 0 -1 -1 -1 -1 -2 -1 -1 -1 -1 -1 -0 -1 -0 0 -0 -1 -0 -1 -0 -0 -0
-1 -1 -2 -1 -1 3 2 -0 1 -1 -2 1 0 0 -1 -2 1 -1 -0 -1 -1 0 -2 -1 -1 -1 -2 -2 -1 -1 -1 -0 1 -0 -0 0 -1 -0 -1 -2 -1 -1 -1
4 -2 0 -2 -0 1 4 3 -1 1 0 -1 -0 1 0 -1 -1 -0 -1 -1 -2 -0 -0 -1 -2 -1 -1 -2 -1 -1 -1 -0 -1 -1 -1 -1 -0 0 -0 0 -1 -0 -1
1 2 6 -0 2 -1 2 2 1 1 -1 1 0 1 1 -1 -2 -1 -2 -2 -3 -3 -0 -0 -2 -1 -1 -1 -1 -1 -1 -1 -1 -2 -1 -1 -0 -1 -0 0 -0 -0 -0
6 2 3 1 1 -0 1 2 2 -2 -1 0 0 1 1 -1 -0 -1 -1 -3 -3 -2 -2 -1 0 -1 -0 -1 -1 -1 -1 -1 -1 -1 -1 -1 -1 -1 -0 -1 -2 -1 -0
-2 -6 -20 3 1 -1 1 1 2 0 0 -1 -1 -0 0 0 1 0 -0 -2 -2 -4 -2 -2 -1 -1 -1 -1 -1 -1 -1 -1 -0 -0 -0 -1 -2 -2 -2 -1 -1 -1 -1
1 -20 72 -2 -6 1 5 4 2 3 1 1 3 2 3 3 0 3 0 -1 -1 -2 -2 -1 -2 -1 -1 -2 -1 -2 -2 -2 -2 -2 -1 -1 -2 -2 -3 -3 -3 -2 -2
1 -2 -3 -2 11 8 4 8 4 3 1 2 4 3 4 5 2 2 2 1 0 -0 -2 -1 -1 -1 -2 -2 -2 -1 -1 -1 -2 -2 -1 -1 -2 -2 -3 -3 -3 -3 -3
3 -4 2 -11 101 -0 8 2 6 5 5 7 5 1 0 2 2 1 3 2 1 1 0 -1 -1 -2 -2 -3 -2 -1 -1 -2 -2 -3 -3 -3 -2 -2 -2 -2 -1 -1 -3
2 3 -0 13 18 -24 -8 40 12 13 11 9 5 5 0 2 2 2 2 1 -0 0 1 -0 -1 -1 -0 -1 -1 0 -2 -2 1 -0 -2 -2 -1 -2 -3 -3 -3 -3 -2
5 2 2 0 2 -1 42 68 6 21 12 8 4 4 4 3 6 4 2 1 0 -0 1 -0 -1 -0 -1 -1 -1 -2 -2 -2 -1 -2 -3 -2 -2 -2 -3 -2 -2 -1 -1
-2 5 11 12 3 5 15 -1 28 -7 -7 1 12 8 6 -4 2 1 -0 1 0 -1 -2 -2 -0 -1 0 2 1 3 -4 -3 -2 -2 -2 -2 -3 -2 -4 -3 -3 -2 0
7 1 3 4 4 11 29 13 63 2 12 22 9 5 6 -4 -2 0 -1 -2 -4 -0 1 2 -1 -0 2 -0 1 2 0 -0 -2 -0 -3 -1 -0 -0 -2 -4 -5 -2 -2
2 1 2 -3 3 -5 12 18 20 10 -3 0 -4 -2 5 -5 -4 -3 -2 0 2 0 1 3 0 1 -2 -4 -1 1 -4 -0 1 -0 -1 -3 -0 2 -1 -2 -3 -2 -1
1 2 2 1 -3 -8 4 1 30 17 -10 -8 4 9 7 3 -0 -1 3 1 1 2 -4 2 2 -4 2 -0 1 -2 -1 0 1 -3 -2 2 2 -3 -0 -2 -4 -3 -5
Height
5856 5857 5858 5860 5861 5862 5864 5866 5867 5868 5869 5869 5870 5871 5871 5872 5872 5873 5873 5874 5874 5875 5874 5873 5873 5874 5874 5873 5873 5873 5873 5872 5872 5871 5871 5871 5871 5871 5871 5871 5871 5870 5870
5853 5855 5856 5858 5860 5861 5863 5864 5866 5867 5868 5868 5869 5870 5871 5872 5872 5873 5873 5874 5875 5875 5874 5874 5873 5873 5873 5873 5873 5873 5873 5872 5871 5870 5870 5870 5870 5870 5870 5870 5870 5870 5870
5851 5852 5854 5855 5857 5859 5861 5863 5864 5865 5866 5867 5868 5869 5870 5871 5872 5872 5873 5874 5874 5875 5874 5874 5874 5873 5873 5873 5873 5873 5873 5872 5871 5870 5869 5869 5869 5869 5869 5869 5869 5869 5868
5848 5849 5851 5853 5855 5857 5858 5860 5862 5863 5865 5866 5867 5868 5869 5870 5871 5871 5872 5873 5873 5873 5874 5874 5874 5874 5874 5873 5873 5873 5873 5872 5872 5871 5870 5869 5869 5869 5868 5868 5868 5867 5867
5845 5846 5847 5849 5851 5854 5856 5858 5860 5861 5862 5864 5865 5866 5867 5868 5869 5870 5871 5871 5872 5872 5872 5872 5873 5873 5873 5873 5872 5872 5872 5872 5871 5871 5870 5869 5869 5868 5867 5867 5867 5866 5866
5841 5843 5844 5846 5848 5850 5852 5854 5856 5858 5860 5861 5862 5863 5864 5866 5867 5868 5869 5870 5870 5870 5871 5871 5871 5871 5871 5871 5871 5870 5870 5870 5870 5869 5869 5868 5868 5867 5866 5865 5865 5864 5864
5836 5839 5840 5842 5844 5846 5848 5851 5853 5854 5856 5858 5859 5861 5862 5863 5864 5865 5867 5867 5868 5869 5869 5869 5869 5869 5869 5869 5869 5868 5868 5868 5868 5867 5866 5866 5866 5865 5864 5863 5863 5862 5862
5831 5834 5836 5838 5839 5842 5844 5846 5849 5851 5853 5854 5856 5857 5859 5860 5862 5863 5864 5865 5866 5867 5867 5867 5867 5867 5867 5867 5866 5866 5866 5865 5865 5864 5863 5863 5863 5862 5862 5861 5860 5859 5859
5825 5829 5831 5833 5835 5837 5839 5841 5844 5846 5848 5851 5852 5854 5856 5857 5859 5860 5861 5862 5863 5864 5864 5864 5865 5865 5865 5865 5864 5864 5863 5862 5862 5861 5860 5859 5859 5859 5859 5858 5857 5856 5855
5819 5823 5826 5828 5830 5832 5835 5837 5839 5841 5844 5847 5849 5850 5852 5854 5856 5857 5858 5859 5860 5861 5861 5861 5861 5862 5862 5862 5861 5861 5860 5859 5859 5858 5857 5857 5856 5856 5855 5855 5854 5852 5851
5810 5815 5819 5822 5824 5827 5829 5832 5835 5837 5839 5842 5844 5846 5847 5849 5851 5853 5854 5855 5856 5857 5857 5857 5858 5858 5859 5858 5858 5857 5857 5856 5855 5855 5854 5853 5853 5853 5852 5851 5850 5848 5847
5799 5805 5809 5813 5817 5820 5823 5826 5828 5831 5834 5836 5839 5842 5843 5845 5847 5849 5851 5852 5853 5853 5853 5854 5854 5854 5855 5855 5854 5854 5853 5852 5852 5851 5851 5850 5849 5848 5848 5846 5845 5843 5842
5789 5793 5799 5804 5808 5813 5816 5819 5822 5825 5829 5831 5833 5836 5839 5840 5843 5845 5846 5847 5849 5849 5850 5850 5850 5850 5850 5850 5850 5850 5849 5849 5848 5847 5847 5846 5845 5844 5843 5841 5839 5838 5836
5777 5783 5789 5794 5800 5805 5809 5812 5815 5819 5822 5825 5828 5831 5834 5836 5838 5840 5841 5843 5844 5845 5846 5846 5846 5846 5846 5846 5846 5846 5845 5844 5844 5843 5842 5841 5840 5838 5837 5835 5834 5832 5830
5763 5771 5778 5783 5790 5795 5801 5805 5809 5812 5816 5819 5822 5825 5828 5830 5832 5834 5836 5838 5839 5840 5841 5842 5842 5842 5842 5842 5842 5842 5841 5840 5840 5839 5837 5836 5835 5833 5831 5829 5828 5826 5824
5751 5759 5766 5772 5779 5784 5790 5796 5800 5804 5809 5812 5816 5818 5821 5824 5827 5829 5831 5832 5834 5835 5836 5837 5838 5838 5838 5838 5837 5837 5837 5836 5835 5834 5832 5830 5828 5826 5825 5823 5821 5819 5817
5737 5750 5755 5760 5767 5773 5779 5785 5790 5795 5800 5805 5809 5811 5814 5817 5820 5822 5825 5826 5828 5829 5830 5831 5832 5833 5832 5832 5832 5832 5831 5830 5829 5827 5825 5824 5822 5820 5818 5815 5813 5811 5808
5721 5737 5725 5747 5755 5761 5767 5773 5779 5785 5789 5794 5799 5803 5807 5810 5813 5815 5817 5820 5821 5823 5824 5825 5826 5826 5826 5826 5826 5826 5825 5824 5823 5821 5819 5816 5815 5812 5810 5808 5805 5802 5800
5705 5716 5726 5735 5740 5747 5754 5760 5765 5771 5777 5782 5787 5793 5798 5802 5806 5808 5810 5812 5814 5816 5817 5818 5819 5820 5820 5820 5820 5819 5818 5817 5815 5813 5811 5809 5807 5805 5802 5799 5796 5793 5790
5687 5700 5713 5718 5712 5729 5737 5747 5752 5757 5765 5773 5777 5783 5788 5793 5797 5801 5803 5805 5808 5809 5810 5811 5812 5813 5813 5813 5813 5812 5811 5810 5808 5805 5803 5800 5798 5795 5792 5789 5786 5783 5781
5669 5683 5695 5704 5709 5718 5713 5733 5737 5747 5756 5763 5770 5774 5779 5782 5787 5792 5795 5798 5800 5801 5803 5804 5805 5805 5806 5806 5806 5805 5804 5802 5799 5797 5794 5791 5788 5785 5782 5779 5776 5773 5770
5656 5666 5680 5689 5699 5707 5710 5705 5717 5730 5742 5749 5756 5763 5768 5773 5777 5782 5786 5789 5792 5793 5795 5796 5797 5797 5798 5798 5798 5797 5796 5795 5792 5789 5785 5782 5779 5775 5772 5769 5766 5763 5759
5641 5653 5665 5672 5682 5694 5697 5703 5703 5712 5720 5732 5743 5750 5756 5761 5767 5772 5776 5780 5782 5784 5786 5787 5788 5788 5789 5789 5788 5788 5787 5785 5783 5779 5775 5771 5767 5764 5761 5759 5756 5753 5749
5631 5638 5649 5663 5672 5683 5688 5693 5691 5698 5712 5723 5730 5734 5744 5750 5756 5762 5766 5769 5772 5775 5776 5777 5778 5780 5779 5779 5779 5778 5776 5775 5772 5769 5764 5760 5757 5754 5750 5747 5744 5741 5737
5621 5628 5636 5649 5659 5671 5680 5686 5686 5691 5694 5702 5715 5724 5733 5739 5746 5751 5755 5759 5762 5764 5767 5768 5769 5768 5768 5768 5767 5767 5766 5763 5760 5757 5753 5750 5747 5742 5738 5734 5730 5726 5722
5615 5622 5627 5637 5646 5660 5673 5676 5682 5683 5683 5691 5704 5715 5723 5730 5735 5740 5744 5748 5752 5755 5756 5758 5758 5758 5757 5758 5758 5756 5753 5751 5749 5746 5743 5740 5736 5731 5726 5721 5717 5712 5707